EW8830 Weather Reports


time (UTC)temp
C
wind
direction
speed
KPH
gust
KPH
rain 1hr
cm
rain 24hr
cm
rain mn
cm
humidity
%
barometer
mb
20260506015504 12 0 0.0 0.0 0.10 0.64 0.64 93 1007.7
20260506015004 12 0 0.0 0.0 0.10 0.64 0.64 93 1007.6
20260506014504 12 0 0.0 0.0 0.13 0.64 0.64 93 1007.6
20260506014003 12 0 0.0 0.0 0.15 0.61 0.61 93 1007.7
20260506013003 12 0 0.0 0.0 0.28 0.58 0.58 93 1007.6
20260506012004 12 0 0.0 0.0 0.46 0.58 0.58 92 1007.4
20260506011504 12 0 0.0 0.0 0.46 0.58 0.58 92 1007.4
20260506011004 12 0 0.0 0.0 0.48 0.58 0.58 92 1007.3
20260506010503 12 0 0.0 0.0 0.53 0.58 0.58 91 1007.4
20260506010003 12 0 0.0 0.0 0.51 0.56 0.56 91 1007.6
20260506005504 13 0 0.0 0.0 0.48 0.53 0.53 90 1007.5
20260506004504 13 334 0.0 20.9 0.43 0.48 0.48 89 1007.8
20260506003503 14 12 0.0 4.8 0.38 0.43 0.43 89 1007.5
20260506003004 15 102 0.0 1.6 0.25 0.30 0.30 88 1007.8
20260506002503 15 284 0.0 4.8 0.08 0.13 0.13 87 1007.7
20260506001504 16 332 0.0 8.0 0.08 0.13 0.13 87 1006.8
20260506001004 16 0 0.0 0.0 0.05 0.10 0.10 86 1006.8
20260506000504 16 0 0.0 0.0 0.00 0.05 0.05 85 1007.0
20260506000004 16 343 0.0 1.6 0.00 0.05 0.05 84 1006.6
20260505235503 16 329 0.0 8.0 0.00 0.05 0.05 84 1006.6
20260505235003 17 321 0.0 8.0 0.00 0.05 0.05 82 1006.6
20260505234503 17 0 0.0 0.0 0.00 0.05 0.05 81 1006.5
20260505233504 17 0 0.0 0.0 0.00 0.05 0.05 79 1006.6
20260505233004 17 0 0.0 0.0 0.00 0.05 0.05 78 1006.5
20260505232504 17 0 0.0 0.0 0.00 0.05 0.05 77 1006.3
20260505232004 17 0 0.0 0.0 0.00 0.05 0.05 77 1006.5
20260505231504 17 0 0.0 0.0 0.00 0.05 0.05 76 1006.5
20260505231003 18 0 0.0 0.0 0.00 0.05 0.05 75 1006.6
20260505230503 18 0 0.0 0.0 0.00 0.05 0.05 75 1006.3
20260505230003 18 0 0.0 0.0 0.00 0.05 0.05 75 1006.6
20260505225504 18 0 0.0 0.0 0.00 0.05 0.05 75 1006.8
20260505225003 18 0 0.0 0.0 0.00 0.05 0.05 75 1006.9
20260505224503 18 0 0.0 0.0 0.00 0.05 0.05 76 1006.8
20260505224004 18 0 0.0 0.0 0.00 0.05 0.05 75 1007.0
20260505223504 18 0 0.0 0.0 0.00 0.05 0.05 76 1006.9
20260505223004 18 0 0.0 0.0 0.00 0.05 0.05 76 1006.9
20260505222504 18 0 0.0 0.0 0.00 0.05 0.05 77 1007.0
20260505221503 18 0 0.0 0.0 0.00 0.05 0.05 77 1006.9
20260505221003 18 0 0.0 0.0 0.00 0.05 0.05 77 1006.8
20260505220503 18 0 0.0 0.0 0.03 0.05 0.05 76 1006.8
20260505220003 17 0 0.0 0.0 0.03 0.05 0.05 77 1006.8
20260505215503 18 0 0.0 0.0 0.03 0.05 0.05 76 1006.8
20260505215003 18 0 0.0 0.0 0.03 0.05 0.05 75 1006.8
20260505214503 17 0 0.0 0.0 0.03 0.05 0.05 75 1006.8
20260505214004 17 0 0.0 0.0 0.03 0.05 0.05 76 1006.9
20260505213504 17 0 0.0 0.0 0.03 0.05 0.05 76 1006.9
20260505213004 17 0 0.0 0.0 0.03 0.05 0.05 76 1006.9
20260505212504 17 0 0.0 0.0 0.03 0.05 0.05 74 1006.9
20260505212003 18 0 0.0 0.0 0.03 0.05 0.05 74 1006.9
20260505211503 18 0 0.0 0.0 0.03 0.05 0.05 74 1007.0
20260505211003 18 0 0.0 0.0 0.03 0.05 0.05 71 1007.0
20260505210503 18 0 0.0 0.0 0.00 0.03 0.03 71 1007.0
20260505210003 18 0 0.0 0.0 0.00 0.03 0.03 69 1006.8
20260505205003 19 0 0.0 0.0 0.00 0.03 0.03 64 1006.9
20260505204503 20 0 0.0 0.0 0.00 0.03 0.03 60 1006.7
20260505204003 20 0 0.0 0.0 0.00 0.03 0.03 58 1006.5
20260505203503 21 0 0.0 0.0 0.00 0.03 0.03 57 1006.7
20260505201003 20 0 0.0 0.0 0.00 0.03 0.03 56 1006.6
20260505200503 20 0 0.0 0.0 0.00 0.03 0.03 56 1006.6
20260505200003 20 0 0.0 0.0 0.00 0.03 0.03 56 1006.6
20260505195003 20 245 0.0 16.1 0.00 0.03 0.03 55 1006.9
20260505194503 20 245 0.0 16.1 0.00 0.03 0.03 55 1006.9
20260505194003 20 280 0.0 4.8 0.00 0.03 0.03 56 1007.0
20260505193503 20 271 0.0 4.8 0.00 0.03 0.03 56 1007.1
20260505193004 20 278 0.0 8.0 0.00 0.03 0.03 55 1007.2
20260505192504 20 274 0.0 9.7 0.00 0.03 0.03 56 1007.3
20260505191003 20 245 0.0 16.1 0.00 0.03 0.03 55 1007.4
20260505190503 20 229 0.0 20.9 0.00 0.03 0.03 54 1007.4
20260505190004 21 259 3.2 35.4 0.00 0.03 0.03 53 1007.4
20260505185503 21 262 1.6 35.4 0.00 0.03 0.03 53 1007.4
20260505184503 21 270 0.0 11.3 0.00 0.03 0.03 52 1007.2
20260505184003 21 268 1.6 17.7 0.00 0.03 0.03 52 1007.1
20260505183504 21 267 1.6 25.7 0.00 0.03 0.03 52 1007.0
20260505182503 21 249 0.0 8.0 0.00 0.03 0.03 52 1007.0
20260505182003 21 271 0.0 8.0 0.00 0.03 0.03 52 1006.9
20260505181503 21 228 0.0 19.3 0.00 0.03 0.03 53 1006.9
20260505181004 21 234 0.0 19.3 0.00 0.03 0.03 52 1007.0
20260505180504 21 289 0.0 11.3 0.00 0.03 0.03 52 1007.0
20260505180004 21 277 0.0 14.5 0.00 0.03 0.03 52 1007.0
20260505175504 21 273 0.0 14.5 0.00 0.03 0.03 52 1007.0
20260505175003 21 280 0.0 22.5 0.00 0.03 0.03 52 1007.0
20260505174503 21 264 1.6 22.5 0.00 0.03 0.03 53 1006.9
20260505174004 21 262 3.2 22.5 0.00 0.03 0.03 52 1006.9
20260505173504 21 263 1.6 19.3 0.00 0.03 0.03 51 1006.8
20260505173004 21 274 0.0 20.9 0.00 0.03 0.03 51 1006.9
20260505172504 21 287 0.0 20.9 0.00 0.03 0.03 50 1006.8
20260505172003 21 253 0.0 8.0 0.00 0.03 0.03 52 1006.8
20260505171003 21 263 3.2 29.0 0.00 0.03 0.03 53 1006.9
20260505170504 22 255 3.2 29.0 0.00 0.03 0.03 51 1006.9
20260505170004 22 253 1.6 27.4 0.00 0.03 0.03 51 1006.9
20260505165504 22 264 1.6 27.4 0.00 0.03 0.03 52 1006.9
20260505165004 21 262 0.0 19.3 0.00 0.03 0.03 53 1006.8
20260505164504 21 253 1.6 24.1 0.00 0.03 0.03 54 1006.9
20260505164003 21 239 3.2 24.1 0.00 0.03 0.03 54 1007.1
20260505163503 21 254 3.2 27.4 0.00 0.03 0.03 54 1006.9
20260505162503 21 252 1.6 16.1 0.00 0.03 0.03 55 1006.8
20260505162003 21 258 1.6 22.5 0.00 0.03 0.03 55 1006.7
20260505161004 21 263 3.2 35.4 0.00 0.03 0.03 56 1006.8
20260505160504 20 261 1.6 35.4 0.00 0.03 0.03 57 1006.8
20260505152504 20 238 1.6 27.4 0.03 0.03 0.03 61 1007.2
20260505152004 20 264 1.6 29.0 0.03 0.03 0.03 62 1007.2
20260505151504 19 270 4.8 30.6 0.03 0.03 0.03 63 1007.0
20260505151004 19 268 3.2 30.6 0.03 0.03 0.03 62 1007.1
20260505140504 17 172 0.0 6.4 0.00 0.00 0.00 70 1006.8
20260505125004 18 193 0.0 14.5 0.00 0.00 0.00 61 1006.5
20260505124503 18 231 0.0 11.3 0.00 0.00 0.00 61 1006.5
20260505124003 18 217 0.0 12.9 0.00 0.00 0.00 61 1006.6
20260505123503 18 199 0.0 12.9 0.00 0.00 0.00 61 1006.6
20260505123003 18 264 0.0 11.3 0.00 0.00 0.00 62 1006.4
20260505122503 18 232 0.0 11.3 0.00 0.00 0.00 62 1006.6
20260505122004 18 223 0.0 11.3 0.00 0.00 0.00 62 1006.5
20260505121504 18 238 0.0 12.9 0.00 0.00 0.00 62 1006.4
20260505121004 18 226 0.0 12.9 0.00 0.00 0.00 62 1006.5
20260505120503 18 169 0.0 12.9 0.00 0.00 0.00 63 1006.5
20260505120004 17 187 0.0 12.9 0.00 0.00 0.00 63 1006.6
20260505115503 17 258 0.0 9.7 0.00 0.00 0.00 63 1006.5
20260505115003 17 202 0.0 11.3 0.00 0.00 0.00 64 1006.4
20260505114503 17 204 0.0 11.3 0.00 0.00 0.00 63 1006.4
20260505114003 17 235 0.0 1.6 0.00 0.00 0.00 64 1006.3
20260505113504 17 0 0.0 0.0 0.00 0.00 0.00 64 1006.4
20260505113004 17 142 0.0 9.7 0.00 0.00 0.00 64 1006.4
20260505112503 17 142 0.0 9.7 0.00 0.00 0.00 64 1006.3
20260505112003 17 0 0.0 0.0 0.00 0.00 0.00 64 1006.2
20260505111503 17 0 0.0 0.0 0.00 0.00 0.00 63 1006.2
20260505110503 17 241 0.0 1.6 0.00 0.00 0.00 63 1006.1
20260505102004 18 263 0.0 12.9 0.00 0.00 0.00 62 1005.4
20260505101503 18 228 0.0 11.3 0.00 0.00 0.00 62 1005.3
20260505101004 17 243 0.0 1.6 0.00 0.00 0.00 62 1005.4
20260505100504 17 223 0.0 3.2 0.00 0.00 0.00 62 1005.3
20260505095503 18 220 0.0 3.2 0.00 0.00 0.00 62 1005.3
20260505095004 18 211 0.0 4.8 0.00 0.00 0.00 62 1005.2
20260505094504 18 247 0.0 4.8 0.00 0.00 0.00 62 1005.1
20260505094004 18 278 0.0 3.2 0.00 0.00 0.00 61 1005.1
20260505093504 18 300 0.0 4.8 0.00 0.00 0.00 61 1005.0
20260505093003 18 297 0.0 4.8 0.00 0.00 0.00 61 1005.1
20260505092503 18 171 0.0 6.4 0.00 0.00 0.00 61 1005.0
20260505091503 18 275 0.0 4.8 0.00 0.00 0.00 60 1004.9
20260505090004 18 168 0.0 4.8 0.00 0.00 0.00 62 1005.0
20260505085003 18 165 0.0 11.3 0.00 0.00 0.00 62 1004.9
20260505084503 18 166 0.0 11.3 0.00 0.00 0.00 62 1004.8
20260505084004 18 173 0.0 11.3 0.00 0.00 0.00 63 1004.7
20260505083503 18 219 0.0 4.8 0.00 0.00 0.00 63 1004.6
20260505083004 18 231 0.0 3.2 0.00 0.00 0.00 63 1004.6
20260505082504 18 163 0.0 4.8 0.00 0.00 0.00 63 1004.5
20260505082004 18 163 0.0 4.8 0.00 0.00 0.00 63 1004.5
20260505081503 17 229 0.0 6.4 0.00 0.00 0.00 63 1004.4
20260505081003 18 217 0.0 6.4 0.00 0.00 0.00 63 1004.3
20260505080004 18 181 0.0 16.1 0.00 0.00 0.00 62 1004.3
20260505075503 18 166 0.0 16.1 0.00 0.00 0.00 62 1004.3
20260505074504 18 203 0.0 11.3 0.00 0.00 0.00 62 1004.3
20260505074004 17 214 0.0 6.4 0.00 0.00 0.00 63 1004.3
20260505073504 17 204 0.0 17.7 0.00 0.00 0.00 63 1004.2
20260505073004 17 207 0.0 17.7 0.00 0.00 0.00 63 1004.2
20260505071503 17 233 0.0 8.0 0.00 0.00 0.00 63 1004.1
20260505070503 18 152 0.0 1.6 0.00 0.00 0.00 62 1004.3
20260505070004 18 152 0.0 1.6 0.00 0.00 0.00 62 1004.2
20260505065504 18 0 0.0 0.0 0.00 0.00 0.00 62 1004.2
20260505064503 18 227 0.0 1.6 0.00 0.00 0.00 62 1004.2
20260505064004 18 227 0.0 1.6 0.00 0.00 0.00 61 1004.3
20260505063504 18 0 0.0 0.0 0.00 0.00 0.00 61 1004.4
20260505062504 18 171 0.0 12.9 0.00 0.00 0.00 61 1004.4
20260505062003 18 174 0.0 11.3 0.00 0.00 0.00 61 1004.6
20260505061503 18 184 0.0 11.3 0.00 0.00 0.00 61 1004.7
20260505060504 18 0 0.0 0.0 0.00 0.00 0.00 61 1004.8
20260505060004 18 0 0.0 0.0 0.00 0.00 0.00 61 1004.9
20260505055503 18 175 0.0 14.5 0.00 0.00 0.00 61 1004.9
20260505055003 18 175 0.0 14.5 0.00 0.00 0.00 61 1004.9
20260505054503 18 0 0.0 0.0 0.00 0.00 0.00 61 1005.0
20260505053004 18 150 0.0 11.3 0.00 0.00 0.00 61 1005.2
20260505052504 18 167 0.0 11.3 0.00 0.00 0.00 61 1005.2
20260505052004 18 191 0.0 9.7 0.00 0.00 0.00 61 1005.2
20260505051504 18 181 0.0 9.7 0.00 0.00 0.00 61 1005.3
20260505051003 18 164 0.0 12.9 0.00 0.00 0.00 61 1005.4
20260505050503 18 164 0.0 12.9 0.00 0.00 0.00 62 1005.3
20260505041504 18 174 0.0 8.0 0.00 0.00 0.00 61 1005.5
20260505041004 18 165 0.0 8.0 0.00 0.00 0.00 61 1005.5
20260505040504 18 168 0.0 9.7 0.00 0.00 0.00 61 1005.4
20260505040005 18 179 0.0 9.7 0.00 0.00 0.00 60 1005.4
20260505035504 18 131 0.0 4.8 0.00 0.00 0.00 60 1005.4
20260505035004 18 134 0.0 4.8 0.00 0.00 0.00 60 1005.5
20260505033503 18 204 0.0 11.3 0.00 0.00 0.00 59 1005.4
20260505033004 18 197 0.0 11.3 0.00 0.00 0.00 59 1005.4
20260505032504 18 160 0.0 9.7 0.00 0.00 0.00 59 1005.4
20260505032004 18 155 0.0 9.7 0.00 0.00 0.00 58 1005.4
20260505031503 18 85 0.0 1.6 0.00 0.00 0.00 58 1005.4
20260505031003 18 303 0.0 1.6 0.00 0.00 0.00 58 1005.5
20260505030503 18 303 0.0 1.6 0.00 0.00 0.00 57 1005.5
20260505030004 18 0 0.0 0.0 0.00 0.00 0.00 57 1005.6
20260505025503 18 0 0.0 0.0 0.00 0.00 0.00 57 1005.6
20260505025004 18 132 0.0 8.0 0.00 0.00 0.00 56 1005.7
20260505024004 18 51 0.0 1.6 0.00 0.00 0.00 55 1005.8
20260505023504 19 0 0.0 0.0 0.00 0.00 0.00 55 1005.8
20260505023003 19 0 0.0 0.0 0.00 0.00 0.00 54 1005.9
20260505022503 19 0 0.0 0.0 0.00 0.00 0.00 54 1005.9
20260505020504 20 0 0.0 0.0 0.00 0.00 0.00 52 1005.8
20260505020003 20 261 0.0 14.5 0.00 0.00 0.00 52 1005.9